Miscellaneous Local Product
Issued by NWS North Platte, NE

Home | Current Version | Previous Version | Text Only | Print | Product List | Glossary On
Versions: 1 2 3 4 5 6 7 8 9 10 11 12 13 14 15 16 17 18 19 20 21 22 23 24 25 26 27 28 29 30 31 32 33 34 35 36 37 38 39 40 41 42 43 44 45 46 47 48 49 50
897
AXUS43 KLBF 270710
MISLBF


WESTERN AND NORTH CENTRAL NEBRASKA HOURLY WEATHER ROUNDUP
NATIONAL WEATHER SERVICE NORTH PLATTE NE
200 AM CDT THU APR 27 2017

NOTE: "FAIR" INDICATES FEW OR NO CLOUDS BELOW 12,000 FEET WITH NO
SIGNIFICANT WEATHER AND/OR OBSTRUCTIONS TO VISIBILITY.

NOTE: STATIONS NOT REPORTING VARIABLES SUCH AS SKY/WEATHER OR
PRESSURE ARE PROVIDED BY RAWS AND APRS NETWORKS AND ARE NOT UNDER
NATIONAL WEATHER SERVICE QUALITY CONTROL.

...OBSERVATIONS IN AND NEAR THE EASTERN PANHANDLE OF NEBRASKA...

CITY           SKY/WX    TMP DP  RH WIND       PRES   REMARKS
PINE RIDGE     CLEAR     25  24  96 CALM      29.69F
CHADRON        CLEAR     30  27  88 E3        29.67F
ALLIANCE       CLOUDY    31  27  85 E3        29.66F
SIDNEY         CLOUDY    40  37  89 S12       29.67F WCI  33
CRESCENT LAKE    N/A     35  31  87 SE5         N/A  WCI  31
$$

...OBSERVATIONS IN NORTHERN NEBRASKA AND FAR SOUTHERN SOUTH DAKOTA...

CITY           SKY/WX    TMP DP  RH WIND       PRES   REMARKS
WINNER         FAIR      27  23  85 SW3       29.73S
VALENTINE      CLEAR     27  22  81 W6        29.71F WCI  20
THEDFORD       CLEAR     28  26  93 CALM      29.72S
AINSWORTH      CLEAR     28  27  95 N6        29.71S WCI  22
O`NEILL        CLEAR     28  25  91 CALM      29.71F
ORD            CLEAR     31  27  85 W9        29.71S WCI  23
BROKEN BOW     CLEAR     28  25  88 NE3       29.71F
VALENTINE NWR    N/A     30  27  88 NW5         N/A  WCI  25
HALSEY           N/A     28  26  91 NW3         N/A
BUTTE            N/A     27  25  90 N5          N/A  WCI  22
CHAMBERS         N/A     27  23  85 CALM        N/A
EWING            N/A     29  27  93 W3          N/A
$$

...OBSERVATIONS IN SOUTHWEST NEBRASKA AND FAR NORTHEAST COLORADO...

CITY           SKY/WX    TMP DP  RH WIND       PRES   REMARKS
HOLYOKE        PTSUNNY   43  37  81 NE5       29.71S
IMPERIAL       CLOUDY    40  34  79 SE3       29.71F
OGALLALA       CLOUDY    41  33  72 SE3       29.71F
NORTH PLATTE   CLOUDY    35  32  88 CALM      29.72S
MCCOOK         CLOUDY    33  27  78 E5        29.73F WCI  29
LEXINGTON      PTCLDY    32  29  88 SW5       29.74R WCI  27
STAPLETON        N/A     28  26  90 CALM        N/A
GOTHENBURG       N/A     35  27  74 CALM        N/A
CALLAWAY         N/A     32  28  86 NE5         N/A  WCI  27
$$

...OBSERVATIONS IN CENTRAL LINCOLN COUNTY AREA...

CITY           SKY/WX    TMP DP  RH WIND       PRES   REMARKS
N.P. AIRPORT   CLOUDY    35  32  88 CALM      29.72S
N.P. DOWNTOWN    N/A     37  30  75 CALM        N/A
N.P. SOUTHEAST   N/A     36  30  78 CALM        N/A
N.P. HILLCREST   N/A     35  32  89 CALM        N/A
$$

...SOME OBSERVATIONS FROM AROUND THE REGION...

CITY           SKY/WX    TMP DP  RH WIND       PRES   REMARKS
DENVER         CLOUDY    41  33  73 SE7       29.65F
LIMON          CLOUDY    34  33  96 CALM      29.69F
ASPEN          CLOUDY    34  29  82 CALM      29.72F
LARAMIE        CLOUDY    34  31  88 S14       29.66F WCI  25
CASPER         CLOUDY    35  33  92 W6        29.59F WCI  30
CHEYENNE       CLOUDY    40  33  76 SW16      29.66F WCI  31
SCOTTSBLUFF    CLOUDY    41  37  86 E7        29.66S
GRAND ISLAND   CLEAR     30  28  92 W9        29.71F WCI  22
OMAHA          CLOUDY    40  31  70 NW12      29.66F WCI  33
SIOUX FALLS    CLOUDY    31  26  82 NW15      29.66R WCI  20
PIERRE         CLEAR     24  20  84 CALM      29.74R
RAPID CITY     CLEAR     27  25  92 W3        29.68F
BISMARCK       CLOUDY    36  27  69 N6        29.77S WCI  31
KANSAS CITY    CLOUDY    43  33  68 NW12      29.66S
HILL CITY      CLEAR     31  29  92 CALM      29.75F
WICHITA        CLEAR     39  36  89 NW5       29.74S
DODGE CITY     CLEAR     38  32  79 S6        29.74S WCI  33
OKLAHOMA CITY  PTCLDY    44  39  82 SW5       29.76R
DALLAS         CLEAR     52  47  83 S5        29.77F
AMARILLO       CLOUDY    46  36  68 SE10      29.77F
$$




USA.gov is the U.S. government's official web portal to all federal, state and local government web resources and services.